Year,Month,Day,Hour,Minute,Value (Times are PST for barometer in hPa)
2022,05,03,00,00,993.30
2022,05,03,00,01,993.23
2022,05,03,00,02,993.23
2022,05,03,00,03,993.19
2022,05,03,00,04,993.26
2022,05,03,00,05,993.26
2022,05,03,00,06,993.30
2022,05,03,00,07,993.33
2022,05,03,00,08,993.33
2022,05,03,00,09,993.33
2022,05,03,00,10,993.33
2022,05,03,00,11,993.33
2022,05,03,00,12,993.30
2022,05,03,00,13,993.30
2022,05,03,00,14,993.30
2022,05,03,00,15,993.26
2022,05,03,00,16,993.33
2022,05,03,00,17,993.33
2022,05,03,00,18,993.30
2022,05,03,00,19,993.36
2022,05,03,00,20,993.33
2022,05,03,00,21,993.36
2022,05,03,00,22,993.33
2022,05,03,00,23,993.36
2022,05,03,00,24,993.33
2022,05,03,00,25,993.36
2022,05,03,00,26,993.33
2022,05,03,00,27,993.30
2022,05,03,00,28,993.36
2022,05,03,00,29,993.36
2022,05,03,00,30,993.19
2022,05,03,00,31,993.30
2022,05,03,00,32,993.33
2022,05,03,00,33,993.33
2022,05,03,00,34,993.30
2022,05,03,00,35,993.33
2022,05,03,00,36,993.36
2022,05,03,00,37,993.40
2022,05,03,00,38,993.33
2022,05,03,00,39,993.33
2022,05,03,00,40,993.36
2022,05,03,00,41,993.36
2022,05,03,00,42,993.36
2022,05,03,00,43,993.40
2022,05,03,00,44,993.33
2022,05,03,00,45,993.36
2022,05,03,00,46,993.40
2022,05,03,00,47,993.36
2022,05,03,00,48,993.33
2022,05,03,00,49,993.33
2022,05,03,00,50,993.33
2022,05,03,00,51,993.33
2022,05,03,00,52,993.26
2022,05,03,00,53,993.26
2022,05,03,00,54,993.26
2022,05,03,00,55,993.26
2022,05,03,00,56,993.30
2022,05,03,00,57,993.26
2022,05,03,00,58,993.23
2022,05,03,00,59,993.23
2022,05,03,01,00,993.23
2022,05,03,01,01,993.23
2022,05,03,01,02,993.30
2022,05,03,01,03,993.30
2022,05,03,01,04,993.26
2022,05,03,01,05,993.30
2022,05,03,01,06,993.30
2022,05,03,01,07,993.33
2022,05,03,01,08,993.30
2022,05,03,01,09,993.30
2022,05,03,01,10,993.30
2022,05,03,01,11,993.30
2022,05,03,01,12,993.33
2022,05,03,01,13,993.30
2022,05,03,01,14,993.23
2022,05,03,01,15,993.26
2022,05,03,01,16,993.26
2022,05,03,01,17,993.30
2022,05,03,01,18,993.30
2022,05,03,01,19,993.26
2022,05,03,01,20,993.33
2022,05,03,01,21,993.33
2022,05,03,01,22,993.33
2022,05,03,01,23,993.33
2022,05,03,01,24,993.33
2022,05,03,01,25,993.33
2022,05,03,01,26,993.30
2022,05,03,01,27,993.33
2022,05,03,01,28,993.33
2022,05,03,01,29,993.36
2022,05,03,01,30,993.36
2022,05,03,01,31,993.30
2022,05,03,01,32,993.33
2022,05,03,01,33,993.33
2022,05,03,01,34,993.30
2022,05,03,01,35,993.26
2022,05,03,01,36,993.33
2022,05,03,01,37,993.26
2022,05,03,01,38,993.26
2022,05,03,01,39,993.23
2022,05,03,01,40,993.30
2022,05,03,01,41,993.33
2022,05,03,01,42,993.26
2022,05,03,01,43,993.30
2022,05,03,01,44,993.30
2022,05,03,01,45,993.26
2022,05,03,01,46,993.26
2022,05,03,01,47,993.30
2022,05,03,01,48,993.30
2022,05,03,01,49,993.30
2022,05,03,01,50,993.33
2022,05,03,01,51,993.33
2022,05,03,01,52,993.33
2022,05,03,01,53,993.33
2022,05,03,01,54,993.33
2022,05,03,01,55,993.33
2022,05,03,01,56,993.36
2022,05,03,01,57,993.36
2022,05,03,01,58,993.30
2022,05,03,01,59,993.33
2022,05,03,02,00,993.36
2022,05,03,02,01,993.36
2022,05,03,02,02,993.36
2022,05,03,02,03,993.40
2022,05,03,02,04,993.40
2022,05,03,02,05,993.43
2022,05,03,02,06,993.43
2022,05,03,02,07,993.40
2022,05,03,02,08,993.40
2022,05,03,02,09,993.40
2022,05,03,02,10,993.40
2022,05,03,02,11,993.40
2022,05,03,02,12,993.47
2022,05,03,02,13,993.43
2022,05,03,02,14,993.36
2022,05,03,02,15,993.33
2022,05,03,02,16,993.33
2022,05,03,02,17,993.36
2022,05,03,02,18,993.33
2022,05,03,02,19,993.36
2022,05,03,02,20,993.30
2022,05,03,02,21,993.30
2022,05,03,02,22,993.33
2022,05,03,02,23,993.33
2022,05,03,02,24,993.33
2022,05,03,02,25,993.33
2022,05,03,02,26,993.33
2022,05,03,02,27,993.30
2022,05,03,02,28,993.30
2022,05,03,02,29,993.36
2022,05,03,02,30,993.30
2022,05,03,02,31,993.30
2022,05,03,02,32,993.36
2022,05,03,02,33,993.36
2022,05,03,02,34,993.36
2022,05,03,02,35,993.36
2022,05,03,02,36,993.40
2022,05,03,02,37,993.40
2022,05,03,02,38,993.36
2022,05,03,02,39,993.40
2022,05,03,02,40,993.36
2022,05,03,02,41,993.36
2022,05,03,02,42,993.36
2022,05,03,02,43,993.33
2022,05,03,02,44,993.40
2022,05,03,02,45,993.36
2022,05,03,02,46,993.33
2022,05,03,02,47,993.33
2022,05,03,02,48,993.33
2022,05,03,02,49,993.33
2022,05,03,02,50,993.33
2022,05,03,02,51,993.36
2022,05,03,02,52,993.33
2022,05,03,02,53,993.33
2022,05,03,02,54,993.36
2022,05,03,02,55,993.33
2022,05,03,02,56,993.33
2022,05,03,02,57,993.33
2022,05,03,02,58,993.30
2022,05,03,02,59,993.30
2022,05,03,03,00,993.30
2022,05,03,03,01,993.23
2022,05,03,03,02,993.30
2022,05,03,03,03,993.26
2022,05,03,03,04,993.26
2022,05,03,03,05,993.33
2022,05,03,03,06,993.26
2022,05,03,03,07,993.26
2022,05,03,03,08,993.26
2022,05,03,03,09,993.23
2022,05,03,03,10,993.26
2022,05,03,03,11,993.26
2022,05,03,03,12,993.26
2022,05,03,03,13,993.26
2022,05,03,03,14,993.26
2022,05,03,03,15,993.30
2022,05,03,03,16,993.30
2022,05,03,03,17,993.26
2022,05,03,03,18,993.26
2022,05,03,03,19,993.30
2022,05,03,03,20,993.33
2022,05,03,03,21,993.30
2022,05,03,03,22,993.26
2022,05,03,03,23,993.26
2022,05,03,03,24,993.30
2022,05,03,03,25,993.30
2022,05,03,03,26,993.26
2022,05,03,03,27,993.26
2022,05,03,03,28,993.30
2022,05,03,03,29,993.26
2022,05,03,03,30,993.26
2022,05,03,03,31,993.26
2022,05,03,03,32,993.26
2022,05,03,03,33,993.23
2022,05,03,03,34,993.26
2022,05,03,03,35,993.23
2022,05,03,03,36,993.26
2022,05,03,03,37,993.23
2022,05,03,03,38,993.16
2022,05,03,03,39,993.19
2022,05,03,03,40,993.19
2022,05,03,03,41,993.16
2022,05,03,03,42,993.19
2022,05,03,03,43,993.26
2022,05,03,03,44,993.19
2022,05,03,03,45,993.23
2022,05,03,03,46,993.23
2022,05,03,03,47,993.26
2022,05,03,03,48,993.26
2022,05,03,03,49,993.26
2022,05,03,03,50,993.23
2022,05,03,03,51,993.23
2022,05,03,03,52,993.26
2022,05,03,03,53,993.16
2022,05,03,03,54,993.16
2022,05,03,03,55,993.23
2022,05,03,03,56,993.19
2022,05,03,03,57,993.16
2022,05,03,03,58,993.23
2022,05,03,03,59,993.19
2022,05,03,04,00,993.19
2022,05,03,04,01,993.19
2022,05,03,04,02,993.16
2022,05,03,04,03,993.16
2022,05,03,04,04,993.13
2022,05,03,04,05,993.16
2022,05,03,04,06,993.16
2022,05,03,04,07,993.16
2022,05,03,04,08,993.16
2022,05,03,04,09,993.13
2022,05,03,04,10,993.16
2022,05,03,04,11,993.09
2022,05,03,04,12,993.09
2022,05,03,04,13,993.09
2022,05,03,04,14,993.06
2022,05,03,04,15,993.09
2022,05,03,04,16,993.03
2022,05,03,04,17,993.06
2022,05,03,04,18,993.06
2022,05,03,04,19,993.06
2022,05,03,04,20,993.09
2022,05,03,04,21,993.06
2022,05,03,04,22,993.13
2022,05,03,04,23,993.03
2022,05,03,04,24,993.06
2022,05,03,04,25,993.03
2022,05,03,04,26,993.09
2022,05,03,04,27,993.06
2022,05,03,04,28,992.99
2022,05,03,04,29,992.99
2022,05,03,04,30,992.96
2022,05,03,04,31,992.96
2022,05,03,04,32,992.96
2022,05,03,04,33,993.03
2022,05,03,04,34,993.03
2022,05,03,04,35,992.99
2022,05,03,04,36,993.03
2022,05,03,04,37,992.99
2022,05,03,04,38,992.99
2022,05,03,04,39,992.99
2022,05,03,04,40,993.03
2022,05,03,04,41,992.99
2022,05,03,04,42,992.99
2022,05,03,04,43,992.96
2022,05,03,04,44,992.96
2022,05,03,04,45,992.96
2022,05,03,04,46,992.96
2022,05,03,04,47,992.92
2022,05,03,04,48,992.92
2022,05,03,04,49,992.96
2022,05,03,04,50,992.96
2022,05,03,04,51,992.92
2022,05,03,04,52,992.92
2022,05,03,04,53,992.89
2022,05,03,04,54,992.89
2022,05,03,04,55,992.92
2022,05,03,04,56,992.96
2022,05,03,04,57,992.89
2022,05,03,04,58,992.99
2022,05,03,04,59,992.92
2022,05,03,05,00,992.89
2022,05,03,05,01,992.92
2022,05,03,05,02,992.89
2022,05,03,05,03,992.89
2022,05,03,05,04,992.92
2022,05,03,05,05,992.92
2022,05,03,05,06,992.89
2022,05,03,05,07,992.92
2022,05,03,05,08,992.96
2022,05,03,05,09,992.96
2022,05,03,05,10,992.96
2022,05,03,05,11,992.92
2022,05,03,05,12,992.96
2022,05,03,05,13,992.92
2022,05,03,05,14,992.92
2022,05,03,05,15,992.89
2022,05,03,05,16,992.86
2022,05,03,05,17,992.92
2022,05,03,05,18,992.92
2022,05,03,05,19,992.92
2022,05,03,05,20,992.89
2022,05,03,05,21,992.86
2022,05,03,05,22,992.89
2022,05,03,05,23,992.92
2022,05,03,05,24,992.92
2022,05,03,05,25,992.92
2022,05,03,05,26,992.92
2022,05,03,05,27,992.89
2022,05,03,05,28,992.89
2022,05,03,05,29,992.86
2022,05,03,05,30,992.89
2022,05,03,05,31,992.86
2022,05,03,05,32,992.86
2022,05,03,05,33,992.92
2022,05,03,05,34,992.92
2022,05,03,05,35,992.92
2022,05,03,05,36,992.86
2022,05,03,05,37,992.92
2022,05,03,05,38,992.89
2022,05,03,05,39,992.82
2022,05,03,05,40,992.86
2022,05,03,05,41,992.86
2022,05,03,05,42,992.82
2022,05,03,05,43,992.89
2022,05,03,05,44,992.92
2022,05,03,05,45,992.92
2022,05,03,05,46,992.89
2022,05,03,05,47,992.86
2022,05,03,05,48,992.89
2022,05,03,05,49,992.79
2022,05,03,05,50,992.82
2022,05,03,05,51,992.82
2022,05,03,05,52,992.82
2022,05,03,05,53,992.79
2022,05,03,05,54,992.79
2022,05,03,05,55,992.75
2022,05,03,05,56,992.75
2022,05,03,05,57,992.75
2022,05,03,05,58,992.75
2022,05,03,05,59,992.79
2022,05,03,06,00,992.72
2022,05,03,06,01,992.79
2022,05,03,06,02,992.72
2022,05,03,06,03,992.65
2022,05,03,06,04,992.69
2022,05,03,06,05,992.69
2022,05,03,06,06,992.65
2022,05,03,06,07,992.75
2022,05,03,06,08,992.72
2022,05,03,06,09,992.69
2022,05,03,06,10,992.69
2022,05,03,06,11,992.69
2022,05,03,06,12,992.65
2022,05,03,06,13,992.62
2022,05,03,06,14,992.62
2022,05,03,06,15,992.65
2022,05,03,06,16,992.62
2022,05,03,06,17,992.65
2022,05,03,06,18,992.65
2022,05,03,06,19,992.62
2022,05,03,06,20,992.62
2022,05,03,06,21,992.65
2022,05,03,06,22,992.69
2022,05,03,06,23,992.69
2022,05,03,06,24,992.65
2022,05,03,06,25,992.69
2022,05,03,06,26,992.65
2022,05,03,06,27,992.65
2022,05,03,06,28,992.65
2022,05,03,06,29,992.69
2022,05,03,06,30,992.65
2022,05,03,06,31,992.69
2022,05,03,06,32,992.65
2022,05,03,06,33,992.62
2022,05,03,06,34,992.62
2022,05,03,06,35,992.65
2022,05,03,06,36,992.65
2022,05,03,06,37,992.72
2022,05,03,06,38,992.69
2022,05,03,06,39,992.62
2022,05,03,06,40,992.65
2022,05,03,06,41,992.62
2022,05,03,06,42,992.58
2022,05,03,06,43,992.58
2022,05,03,06,44,992.55
2022,05,03,06,45,992.55
2022,05,03,06,46,992.55
2022,05,03,06,47,992.58
2022,05,03,06,48,992.62
2022,05,03,06,49,992.62
2022,05,03,06,50,992.62
2022,05,03,06,51,992.69
2022,05,03,06,52,992.65
2022,05,03,06,53,992.62
2022,05,03,06,54,992.62
2022,05,03,06,55,992.62
2022,05,03,06,56,992.55
2022,05,03,06,57,992.55
2022,05,03,06,58,992.52
2022,05,03,06,59,992.52
2022,05,03,07,00,992.55
2022,05,03,07,01,992.48
2022,05,03,07,02,992.52
2022,05,03,07,03,992.45
2022,05,03,07,04,992.48
2022,05,03,07,05,992.45
2022,05,03,07,06,992.42
2022,05,03,07,07,992.45
2022,05,03,07,08,992.48
2022,05,03,07,09,992.45
2022,05,03,07,10,992.42
2022,05,03,07,11,992.38
2022,05,03,07,12,992.38
2022,05,03,07,13,992.35
2022,05,03,07,14,992.38
2022,05,03,07,15,992.38
2022,05,03,07,16,992.38
2022,05,03,07,17,992.38
2022,05,03,07,18,992.31
2022,05,03,07,19,992.35
2022,05,03,07,20,992.35
2022,05,03,07,21,992.31
2022,05,03,07,22,992.31
2022,05,03,07,23,992.31
2022,05,03,07,24,992.28
2022,05,03,07,25,992.25
2022,05,03,07,26,992.31
2022,05,03,07,27,992.21
2022,05,03,07,28,992.25
2022,05,03,07,29,992.21
2022,05,03,07,30,992.21
2022,05,03,07,31,992.18
2022,05,03,07,32,992.14
2022,05,03,07,33,992.11
2022,05,03,07,34,992.11
2022,05,03,07,35,992.11
2022,05,03,07,36,992.14
2022,05,03,07,37,992.14
2022,05,03,07,38,992.14
2022,05,03,07,39,992.14
2022,05,03,07,40,992.14
2022,05,03,07,41,992.14
2022,05,03,07,42,992.14
2022,05,03,07,43,992.14
2022,05,03,07,44,992.14
2022,05,03,07,45,992.02
2022,05,03,07,46,992.18
2022,05,03,07,47,992.18
2022,05,03,07,48,992.14
2022,05,03,07,49,992.18
2022,05,03,07,50,992.14
2022,05,03,07,51,992.18
2022,05,03,07,52,992.18
2022,05,03,07,53,992.18
2022,05,03,07,54,992.18
2022,05,03,07,55,992.14
2022,05,03,07,56,992.14
2022,05,03,07,57,992.21
2022,05,03,07,58,992.14
2022,05,03,07,59,992.18
2022,05,03,08,00,992.14
2022,05,03,08,01,992.14
2022,05,03,08,02,992.08
2022,05,03,08,03,992.08
2022,05,03,08,04,992.04
2022,05,03,08,05,992.08
2022,05,03,08,06,992.11
2022,05,03,08,07,992.08
2022,05,03,08,08,992.08
2022,05,03,08,09,992.11
2022,05,03,08,10,992.11
2022,05,03,08,11,992.04
2022,05,03,08,12,992.14
2022,05,03,08,13,992.11
2022,05,03,08,14,992.14
2022,05,03,08,15,992.11
2022,05,03,08,16,992.14
2022,05,03,08,17,992.14
2022,05,03,08,18,992.11
2022,05,03,08,19,992.14
2022,05,03,08,20,992.14
2022,05,03,08,21,992.14
2022,05,03,08,22,992.14
2022,05,03,08,23,992.18
2022,05,03,08,24,992.11
2022,05,03,08,25,992.11
2022,05,03,08,26,992.04
2022,05,03,08,27,992.11
2022,05,03,08,28,992.01
2022,05,03,08,29,992.04
2022,05,03,08,30,992.04
2022,05,03,08,31,992.04
2022,05,03,08,32,992.04
2022,05,03,08,33,992.04
2022,05,03,08,34,991.98
2022,05,03,08,35,992.04
2022,05,03,08,36,992.04
2022,05,03,08,37,992.04
2022,05,03,08,38,992.01
2022,05,03,08,39,992.04
2022,05,03,08,40,991.98
2022,05,03,08,41,991.98
2022,05,03,08,42,991.98
2022,05,03,08,43,991.94
2022,05,03,08,44,991.94
2022,05,03,08,45,991.98
2022,05,03,08,46,992.01
2022,05,03,08,47,991.94
2022,05,03,08,48,991.98
2022,05,03,08,49,991.94
2022,05,03,08,50,991.98
2022,05,03,08,51,991.98
2022,05,03,08,52,991.98
2022,05,03,08,53,991.91
2022,05,03,08,54,991.94
2022,05,03,08,55,991.94
2022,05,03,08,56,991.81
2022,05,03,08,57,991.91
2022,05,03,08,58,991.84
2022,05,03,08,59,991.81
2022,05,03,09,00,991.84
2022,05,03,09,01,991.84
2022,05,03,09,02,991.81
2022,05,03,09,03,991.91
2022,05,03,09,04,991.84
2022,05,03,09,05,991.81
2022,05,03,09,06,991.81
2022,05,03,09,07,991.81
2022,05,03,09,08,991.84
2022,05,03,09,09,991.84
2022,05,03,09,10,991.84
2022,05,03,09,11,991.81
2022,05,03,09,12,991.77
2022,05,03,09,13,991.77
2022,05,03,09,14,991.77
2022,05,03,09,15,991.81
2022,05,03,09,16,991.77
2022,05,03,09,17,991.77
2022,05,03,09,18,991.81
2022,05,03,09,19,991.87
2022,05,03,09,20,991.81
2022,05,03,09,21,991.84
2022,05,03,09,22,991.81
2022,05,03,09,23,991.81
2022,05,03,09,24,991.77
2022,05,03,09,25,991.74
2022,05,03,09,26,991.77
2022,05,03,09,27,991.81
2022,05,03,09,28,991.77
2022,05,03,09,29,991.81
2022,05,03,09,30,991.84
2022,05,03,09,31,991.81
2022,05,03,09,32,991.70
2022,05,03,09,33,991.84
2022,05,03,09,34,991.87
2022,05,03,09,35,991.81
2022,05,03,09,36,991.81
2022,05,03,09,37,991.77
2022,05,03,09,38,991.81
2022,05,03,09,39,991.84
2022,05,03,09,40,991.77
2022,05,03,09,41,991.77
2022,05,03,09,42,991.77
2022,05,03,09,43,991.81
2022,05,03,09,44,991.74
2022,05,03,09,45,991.74
2022,05,03,09,46,991.81
2022,05,03,09,47,991.74
2022,05,03,09,48,991.74
2022,05,03,09,49,991.74
2022,05,03,09,50,991.70
2022,05,03,09,51,991.74
2022,05,03,09,52,991.74
2022,05,03,09,53,991.77
2022,05,03,09,54,991.77
2022,05,03,09,55,991.70
2022,05,03,09,56,991.70
2022,05,03,09,57,991.67
2022,05,03,09,58,991.70
2022,05,03,09,59,991.67
2022,05,03,10,00,991.70
2022,05,03,10,01,991.70
2022,05,03,10,02,991.60
2022,05,03,10,03,991.67
2022,05,03,10,04,991.67
2022,05,03,10,05,991.64
2022,05,03,10,06,991.60
2022,05,03,10,07,991.64
2022,05,03,10,08,991.64
2022,05,03,10,09,991.64
2022,05,03,10,10,991.70
2022,05,03,10,11,991.70
2022,05,03,10,12,991.67
2022,05,03,10,13,991.64
2022,05,03,10,14,991.60
2022,05,03,10,15,991.64
2022,05,03,10,16,991.67
2022,05,03,10,17,991.64
2022,05,03,10,18,991.64
2022,05,03,10,19,991.64
2022,05,03,10,20,991.60
2022,05,03,10,21,991.60
2022,05,03,10,22,991.60
2022,05,03,10,23,991.60
2022,05,03,10,24,991.67
2022,05,03,10,25,991.67
2022,05,03,10,26,991.60
2022,05,03,10,27,991.60
2022,05,03,10,28,991.64
2022,05,03,10,29,991.60
2022,05,03,10,30,991.60
2022,05,03,10,31,991.64
2022,05,03,10,32,991.67
2022,05,03,10,33,991.70
2022,05,03,10,34,991.70
2022,05,03,10,35,991.70
2022,05,03,10,36,991.70
2022,05,03,10,37,991.70
2022,05,03,10,38,991.74
2022,05,03,10,39,991.77
2022,05,03,10,40,991.67
2022,05,03,10,41,991.67
2022,05,03,10,42,991.70
2022,05,03,10,43,991.81
2022,05,03,10,44,991.77
2022,05,03,10,45,991.87
2022,05,03,10,46,991.77
2022,05,03,10,47,991.91
2022,05,03,10,48,991.91
2022,05,03,10,49,991.87
2022,05,03,10,50,991.84
2022,05,03,10,51,991.94
2022,05,03,10,52,992.08
2022,05,03,10,53,992.21
2022,05,03,10,54,992.14
2022,05,03,10,55,992.21
2022,05,03,10,56,992.28
2022,05,03,10,57,992.18
2022,05,03,10,58,992.21
2022,05,03,10,59,992.28
2022,05,03,11,00,992.35
2022,05,03,11,01,992.35
2022,05,03,11,02,992.42
2022,05,03,11,03,992.35
2022,05,03,11,04,992.38
2022,05,03,11,05,992.42
2022,05,03,11,06,992.38
2022,05,03,11,07,992.38
2022,05,03,11,08,992.38
2022,05,03,11,09,992.42
2022,05,03,11,10,992.45
2022,05,03,11,11,992.42
2022,05,03,11,12,992.45
2022,05,03,11,13,992.42
2022,05,03,11,14,992.48
2022,05,03,11,15,992.45
2022,05,03,11,16,992.45
2022,05,03,11,17,992.48
2022,05,03,11,18,992.48
2022,05,03,11,19,992.48
2022,05,03,11,20,992.48
2022,05,03,11,21,992.45
2022,05,03,11,22,992.48
2022,05,03,11,23,992.55
2022,05,03,11,24,992.52
2022,05,03,11,25,992.48
2022,05,03,11,26,992.45
2022,05,03,11,27,992.42
2022,05,03,11,28,992.42
2022,05,03,11,29,992.42
2022,05,03,11,30,992.42
2022,05,03,11,31,992.42
2022,05,03,11,32,992.42
2022,05,03,11,33,992.38
2022,05,03,11,34,992.38
2022,05,03,11,35,992.42
2022,05,03,11,36,992.42
2022,05,03,11,37,992.45
2022,05,03,11,38,992.45
2022,05,03,11,39,992.45
2022,05,03,11,40,992.42
2022,05,03,11,41,992.45
2022,05,03,11,42,992.45
2022,05,03,11,43,992.48
2022,05,03,11,44,992.45
2022,05,03,11,45,992.45
2022,05,03,11,46,992.42
2022,05,03,11,47,992.42
2022,05,03,11,48,992.42
2022,05,03,11,49,992.42
2022,05,03,11,50,992.42
2022,05,03,11,51,992.42
2022,05,03,11,52,992.42
2022,05,03,11,53,992.42
2022,05,03,11,54,992.42
2022,05,03,11,55,992.42
2022,05,03,11,56,992.42
2022,05,03,11,57,992.42
2022,05,03,11,58,992.38
2022,05,03,11,59,992.42
2022,05,03,12,00,992.42
2022,05,03,12,01,992.42
2022,05,03,12,02,992.38
2022,05,03,12,03,992.35
2022,05,03,12,04,992.42
2022,05,03,12,05,992.45
2022,05,03,12,06,992.42
2022,05,03,12,07,992.42
2022,05,03,12,08,992.42
2022,05,03,12,09,992.45
2022,05,03,12,10,992.45
2022,05,03,12,11,992.42
2022,05,03,12,12,992.42
2022,05,03,12,13,992.42
2022,05,03,12,14,992.38
2022,05,03,12,15,992.35
2022,05,03,12,16,992.38
2022,05,03,12,17,992.35
2022,05,03,12,18,992.35
2022,05,03,12,19,992.35
2022,05,03,12,20,992.35
2022,05,03,12,21,992.31
2022,05,03,12,22,992.25
2022,05,03,12,23,992.31
2022,05,03,12,24,992.31
2022,05,03,12,25,992.31
2022,05,03,12,26,992.28
2022,05,03,12,27,992.31
2022,05,03,12,28,992.35
2022,05,03,12,29,992.35
2022,05,03,12,30,992.31
2022,05,03,12,31,992.31
2022,05,03,12,32,992.28
2022,05,03,12,33,992.25
2022,05,03,12,34,992.31
2022,05,03,12,35,992.35
2022,05,03,12,36,992.35
2022,05,03,12,37,992.38
2022,05,03,12,38,992.25
2022,05,03,12,39,992.28
2022,05,03,12,40,992.35
2022,05,03,12,41,992.31
2022,05,03,12,42,992.35
2022,05,03,12,43,992.31
2022,05,03,12,44,992.35
2022,05,03,12,45,992.35
2022,05,03,12,46,992.31
2022,05,03,12,47,992.35
2022,05,03,12,48,992.31
2022,05,03,12,49,992.31
2022,05,03,12,50,992.35
2022,05,03,12,51,992.31
2022,05,03,12,52,992.31
2022,05,03,12,53,992.28
2022,05,03,12,54,992.31
2022,05,03,12,55,992.31
2022,05,03,12,56,992.31
2022,05,03,12,57,992.31
2022,05,03,12,58,992.28
2022,05,03,12,59,992.25
2022,05,03,13,00,992.28
2022,05,03,13,01,992.28
2022,05,03,13,02,992.25
2022,05,03,13,03,992.25
2022,05,03,13,04,992.21
2022,05,03,13,05,992.21
2022,05,03,13,06,992.21
2022,05,03,13,07,992.18
2022,05,03,13,08,992.21
2022,05,03,13,09,992.14
2022,05,03,13,10,992.14
2022,05,03,13,11,992.11
2022,05,03,13,12,992.11
2022,05,03,13,13,992.08
2022,05,03,13,14,992.08
2022,05,03,13,15,992.08
2022,05,03,13,16,992.08
2022,05,03,13,17,992.11
2022,05,03,13,18,992.01
2022,05,03,13,19,992.01
2022,05,03,13,20,992.01
2022,05,03,13,21,992.01
2022,05,03,13,22,992.04
2022,05,03,13,23,992.04
2022,05,03,13,24,992.04
2022,05,03,13,25,992.01
2022,05,03,13,26,992.01
2022,05,03,13,27,992.01
2022,05,03,13,28,992.01
2022,05,03,13,29,992.01
2022,05,03,13,30,992.01
2022,05,03,13,31,992.04
2022,05,03,13,32,992.04
2022,05,03,13,33,992.01
2022,05,03,13,34,992.04
2022,05,03,13,35,991.98
2022,05,03,13,36,991.98
2022,05,03,13,37,992.01
2022,05,03,13,38,991.98
2022,05,03,13,39,991.98
2022,05,03,13,40,991.98
2022,05,03,13,41,991.98
2022,05,03,13,42,991.94
2022,05,03,13,43,991.94
2022,05,03,13,44,991.91
2022,05,03,13,45,991.87
2022,05,03,13,46,991.87
2022,05,03,13,47,991.87
2022,05,03,13,48,991.84
2022,05,03,13,49,991.87
2022,05,03,13,50,991.87
2022,05,03,13,51,991.84
2022,05,03,13,52,991.87
2022,05,03,13,53,991.87
2022,05,03,13,54,991.84
2022,05,03,13,55,991.84
2022,05,03,13,56,991.81
2022,05,03,13,57,991.84
2022,05,03,13,58,991.84
2022,05,03,13,59,991.74
2022,05,03,14,00,991.81
2022,05,03,14,01,991.74
2022,05,03,14,02,991.81
2022,05,03,14,03,991.81
2022,05,03,14,04,991.81
2022,05,03,14,05,991.74
2022,05,03,14,06,991.81
2022,05,03,14,07,991.81
2022,05,03,14,08,991.70
2022,05,03,14,09,991.70
2022,05,03,14,10,991.67
2022,05,03,14,11,991.70
2022,05,03,14,12,991.70
2022,05,03,14,13,991.70
2022,05,03,14,14,991.77
2022,05,03,14,15,991.77
2022,05,03,14,16,991.77
2022,05,03,14,17,991.77
2022,05,03,14,18,991.77
2022,05,03,14,19,991.77
2022,05,03,14,20,991.77
2022,05,03,14,21,991.74
2022,05,03,14,22,991.74
2022,05,03,14,23,991.67
2022,05,03,14,24,991.70
2022,05,03,14,25,991.64
2022,05,03,14,26,991.64
2022,05,03,14,27,991.74
2022,05,03,14,28,991.64
2022,05,03,14,29,991.70
2022,05,03,14,30,991.70
2022,05,03,14,31,991.64
2022,05,03,14,32,991.60
2022,05,03,14,33,991.60
2022,05,03,14,34,991.60
2022,05,03,14,35,991.64
2022,05,03,14,36,991.70
2022,05,03,14,37,991.60
2022,05,03,14,38,991.64
2022,05,03,14,39,991.60
2022,05,03,14,40,991.60
2022,05,03,14,41,991.60
2022,05,03,14,42,991.60
2022,05,03,14,43,991.57
2022,05,03,14,44,991.60
2022,05,03,14,45,991.53
2022,05,03,14,46,991.53
2022,05,03,14,47,991.53
2022,05,03,14,48,991.50
2022,05,03,14,49,991.50
2022,05,03,14,50,991.50
2022,05,03,14,51,991.50
2022,05,03,14,52,991.50
2022,05,03,14,53,991.50
2022,05,03,14,54,991.50
2022,05,03,14,55,991.43
2022,05,03,14,56,991.47
2022,05,03,14,57,991.47
2022,05,03,14,58,991.43
2022,05,03,14,59,991.47
2022,05,03,15,00,991.43
2022,05,03,15,01,991.43
2022,05,03,15,02,991.40
2022,05,03,15,03,991.47
2022,05,03,15,04,991.40
2022,05,03,15,05,991.47
2022,05,03,15,06,991.43
2022,05,03,15,07,991.43
2022,05,03,15,08,991.43
2022,05,03,15,09,991.43
2022,05,03,15,10,991.47
2022,05,03,15,11,991.43
2022,05,03,15,12,991.43
2022,05,03,15,13,991.43
2022,05,03,15,14,991.40
2022,05,03,15,15,991.37
2022,05,03,15,16,991.37
2022,05,03,15,17,991.37
2022,05,03,15,18,991.37
2022,05,03,15,19,991.37
2022,05,03,15,20,991.37
2022,05,03,15,21,991.37
2022,05,03,15,22,991.37
2022,05,03,15,23,991.37
2022,05,03,15,24,991.43
2022,05,03,15,25,991.37
2022,05,03,15,26,991.37
2022,05,03,15,27,991.40
2022,05,03,15,28,991.37
2022,05,03,15,29,991.30
2022,05,03,15,30,991.33
2022,05,03,15,31,991.30
2022,05,03,15,32,991.33
2022,05,03,15,33,991.33
2022,05,03,15,34,991.33
2022,05,03,15,35,991.33
2022,05,03,15,36,991.30
2022,05,03,15,37,991.30
2022,05,03,15,38,991.37
2022,05,03,15,39,991.30
2022,05,03,15,40,991.33
2022,05,03,15,41,991.33
2022,05,03,15,42,991.30
2022,05,03,15,43,991.30
2022,05,03,15,44,991.26
2022,05,03,15,45,991.30
2022,05,03,15,46,991.30
2022,05,03,15,47,991.26
2022,05,03,15,48,991.26
2022,05,03,15,49,991.26
2022,05,03,15,50,991.23
2022,05,03,15,51,991.26
2022,05,03,15,52,991.23
2022,05,03,15,53,991.23
2022,05,03,15,54,991.23
2022,05,03,15,55,991.26
2022,05,03,15,56,991.20
2022,05,03,15,57,991.23
2022,05,03,15,58,991.16
2022,05,03,15,59,991.23
2022,05,03,16,00,991.20
2022,05,03,16,01,991.20
2022,05,03,16,02,991.23
2022,05,03,16,03,991.23
2022,05,03,16,04,991.23
2022,05,03,16,05,991.20
2022,05,03,16,06,991.23
2022,05,03,16,07,991.23
2022,05,03,16,08,991.20
2022,05,03,16,09,991.16
2022,05,03,16,10,991.20
2022,05,03,16,11,991.20
2022,05,03,16,12,991.23
2022,05,03,16,13,991.26
2022,05,03,16,14,991.23
2022,05,03,16,15,991.20
2022,05,03,16,16,991.20
2022,05,03,16,17,991.23
2022,05,03,16,18,991.16
2022,05,03,16,19,991.16
2022,05,03,16,20,991.20
2022,05,03,16,21,991.20
2022,05,03,16,22,991.16
2022,05,03,16,23,991.13
2022,05,03,16,24,991.13
2022,05,03,16,25,991.16
2022,05,03,16,26,991.16
2022,05,03,16,27,991.16
2022,05,03,16,28,991.16
2022,05,03,16,29,991.16
2022,05,03,16,30,991.20
2022,05,03,16,31,991.20
2022,05,03,16,32,991.20
2022,05,03,16,33,991.20
2022,05,03,16,34,991.16
2022,05,03,16,35,991.16
2022,05,03,16,36,991.16